Location: Barletta
(41.3170°N, 16.2830°E)
Time: 16:46:48
(UTC+02:00)

ISS - Pass Details

Date: 17 May 2021
Orbit: 417 x 422 km, 51.6° (Epoch: 18 June)

Event Time Altitude Azimuth Distance (km) Brightness Sun altitude
Rises 02:05:43 0° 310° (NW) 2,372 0.3 -26.9°
Reaches altitude 10° 02:08:04 10° 324° (NW) 1,507 -0.6 -26.8°
Maximum altitude 02:10:57 25° 22° (NNE) 886 -1.5 -26.6°
Drops below altitude 10° 02:13:50 10° 80° (E) 1,505 -0.6 -26.4°
Sets 02:16:10 0° 94° (E) 2,368 0.3 -26.2°
